[[{"header":{"parameterUnit":"m.s-1","parameterCategory":1,"la1":30.2991,"la2":30.254,"lo1":-89.0895,"lo2":-89.0444,"dy":0.0017,"dx":0.0017,"nx":28,"ny":28,"refTime":"2024-06-23T09:00:00:Z","depth":0,"parameterNumber":2,"parameterNumberName":"U-component_of_WINDS"},"data":[0,0,0,0,0,0,0,0,0,0,0,0,0,0,0,0,0,0,0,0,0,0,0,0,0,0,0,0,0,0,0,0,0,0,0,0,0,0,0,0,0,0,0,0,0,0,0,0,0,0,0,0,0,0,0,0,0,0,1.5557,1.5558,0,1.5687,1.5688,1.569,1.5751,1.5751,1.575,1.575,1.5881,1.5885,1.5888,0,0,0,0,0,0,0,0,0,0,0,0,0,1.5357,1.5361,1.5557,1.5558,1.556,1.5687,1.5688,1.569,1.5751,1.5751,1.575,1.575,1.588,1.5884,1.5888,0,0,0,0,0,0,0,0,0,0,0,0,0,1.5461,1.5362,1.5556,1.5606,1.5611,1.5686,1.5688,1.5691,1.5751,1.5751,1.575,1.575,1.5879,1.5884,1.5889,1.5924,0,0,1.5905,1.5908,0,0,0,0,0,0,0,0,1.5455,1.5468,1.5597,1.5602,1.5609,1.5703,1.5666,1.5769,1.5751,1.5698,1.575,1.575,1.5822,1.5832,1.5856,1.5931,1.5936,1.5906,1.5909,1.5911,1.5913,0,0,0,0,0,0,0,1.5448,1.5463,1.5608,1.5598,1.5606,1.562,1.5634,1.5686,1.5759,1.5702,1.5707,1.5722,1.5825,1.5851,1.586,1.5938,1.5906,1.591,1.5914,1.5916,1.6047,1.6047,0,0,0,0,0,0,1.5433,1.5457,1.5604,1.5612,1.553,1.5624,1.564,1.5672,1.5758,1.5771,1.5722,1.5724,1.5842,1.5853,1.5865,1.5911,1.5911,1.5916,1.5919,1.6046,1.6047,1.6047,0,0,0,0,0,0,1.5429,1.5446,1.5599,1.5536,1.5556,1.5627,1.5663,1.5675,1.5701,1.5773,1.5786,1.5735,1.5842,1.5857,1.5909,1.5917,1.5919,1.5924,1.6046,1.6047,1.6047,1.6005,0,0,0,0,0,0,1.5423,1.5444,1.5459,1.5536,1.5559,1.5642,1.5664,1.5678,1.5711,1.5715,1.5789,1.5801,1.5843,1.5901,1.5914,1.5924,1.5928,1.6046,1.6046,1.6047,1.6006,1.6004,1.6002,0,0,0,0,0,1.5415,1.5442,1.5459,1.5477,1.558,1.5642,1.5656,1.5704,1.5711,1.5726,1.5772,1.5799,1.5913,1.5906,1.5921,1.5933,1.6046,1.6046,1.6047,1.6007,1.6005,1.6002,0,0,0,0,0,0,1.5363,1.5453,1.5473,1.5525,1.5576,1.5652,1.5673,1.57,1.5749,1.5751,1.5809,1.5825,1.5872,1.5907,1.5897,1.5971,1.5982,1.5986,1.5946,1.5944,1.5942,1.5933,1.5932,0,0,0,0,0,1.5358,1.5402,1.5477,1.5516,1.554,1.5602,1.5631,1.5664,1.5718,1.574,1.579,1.584,1.5888,1.5918,1.5966,1.6011,1.6028,1.6027,1.6025,1.6023,1.6026,1.6052,1.6052,1.6049,1.6049,1.6049,0,0,1.5347,1.5401,1.5426,1.5507,1.555,1.5593,1.562,1.5665,1.5697,1.5746,1.5799,1.5837,1.5897,1.5946,1.597,1.5977,1.603,1.6024,1.6022,1.6026,1.6052,1.6053,1.6053,1.605,1.605,1.6049,0,0,1.535,1.5396,1.5433,1.5475,1.554,1.5581,1.5589,1.5662,1.5689,1.5743,1.578,1.5819,1.59,1.5941,1.5973,1.5989,1.6016,1.6003,1.5993,1.6018,1.6018,1.6019,1.6024,1.6026,1.6005,1.6005,1.6005,0,1.5329,1.5397,1.5448,1.5491,1.5525,1.5572,1.5609,1.5647,1.5724,1.5746,1.5753,1.5855,1.5899,1.5957,1.5961,1.5985,1.5996,1.5995,1.6014,1.6015,1.6016,1.6022,1.6024,1.6003,1.6004,1.6004,1.6004,0,1.5367,1.5413,1.5435,1.5508,1.5545,1.5584,1.564,1.5671,1.57,1.5739,1.5792,1.5847,1.5906,1.5922,1.5951,1.5984,1.5987,1.6003,1.6015,1.6014,1.602,1.6023,1.6001,1.6001,1.6002,1.6002,0,0,1.5342,1.5442,1.545,1.5483,1.5557,1.5594,1.5634,1.5693,1.5718,1.5768,1.5804,1.587,1.5885,1.5921,1.5955,1.5976,1.5985,1.599,1.5992,1.5987,1.6025,1.6013,1.6015,1.6003,1.6003,1.6004,1.602,0,1.5355,1.5432,1.5479,1.5537,1.5579,1.5623,1.5659,1.5707,1.5745,1.5786,1.5827,1.5873,1.589,1.5912,1.5935,1.5979,1.5994,1.5979,1.6036,1.6037,1.602,1.6019,1.6006,1.6019,1.6023,1.6024,1.6024,0,1.5382,1.5432,1.5494,1.5562,1.5582,1.5613,1.567,1.5709,1.5764,1.579,1.5829,1.5862,1.5906,1.5914,1.5975,1.5963,1.5989,1.6014,1.6016,1.6024,1.6031,1.6026,1.6024,1.6026,1.6029,1.6028,1.6028,0,1.5357,1.544,1.5488,1.5515,1.5596,1.5617,1.5651,1.5707,1.5738,1.5787,1.5808,1.5861,1.5891,1.593,1.5977,1.5978,1.6033,1.6045,1.6055,1.6054,1.6065,1.6064,1.6067,1.6081,1.6081,1.6081,1.6081,0,1.5368,1.5404,1.5478,1.5507,1.5548,1.5601,1.564,1.5678,1.5726,1.5763,1.5803,1.5837,1.5896,1.5936,1.5973,1.6017,1.603,1.6052,1.6061,1.6049,1.6046,1.6067,1.6067,1.6081,1.6081,1.6081,1.6081,0,1.5348,1.5399,1.5454,1.5526,1.5545,1.5572,1.5633,1.5663,1.5702,1.5747,1.5761,1.5822,1.5872,1.5922,1.5988,1.6013,1.6056,1.6069,1.6038,1.6043,1.6051,1.6049,1.6068,1.6073,1.6082,1.6082,1.6082,0,1.5352,1.5381,1.5455,1.5483,1.5517,1.5561,1.5594,1.5646,1.5678,1.5742,1.5763,1.5816,1.5861,1.5937,1.5987,1.6038,1.6052,1.6055,1.606,1.6046,1.6053,1.6051,1.6054,1.6054,1.6053,1.6053,1.6053,0,1.5353,1.5376,1.5422,1.5476,1.5514,1.5559,1.5606,1.5626,1.5686,1.572,1.5771,1.5806,1.5874,1.5925,1.5982,1.6016,1.6044,1.6051,1.6056,1.6044,1.6024,1.6035,1.6033,1.605,1.605,1.6051,1.6051,1.6051,1.5345,1.5372,1.5429,1.5479,1.5519,1.5561,1.5592,1.5635,1.5679,1.5739,1.5766,1.5817,1.5871,1.595,1.5983,1.6024,1.6031,1.6039,1.6041,1.6042,1.6039,1.6017,1.6034,1.6034,1.6034,1.6034,1.6035,0,1.5348,1.5387,1.5432,1.5495,1.5534,1.5557,1.5609,1.564,1.5684,1.5732,1.5775,1.5833,1.5883,1.5936,1.5989,1.6011,1.6025,1.6023,1.6022,1.6029,1.6029,1.6019,1.601,1.601,1.601,1.601,1.601,1.601,1.5354,1.5402,1.5432,1.5499,1.5537,1.5588,1.5616,1.5655,1.5693,1.5756,1.5798,1.5832,1.5882,1.5938,1.5985,1.5999,1.6016,1.6011,1.6028,1.6027,1.6029,1.6031,1.6022,1.6014,1.6014,1.6026,1.6026,1.6026]},{"header":{"parameterUnit":"m.s-1","parameterCategory":1,"la1":30.2991,"la2":30.254,"lo1":-89.0895,"lo2":-89.0444,"dy":0.0017,"dx":0.0017,"nx":28,"ny":28,"refTime":"2024-06-23T09:00:00:Z","depth":0,"parameterNumber":3,"parameterNumberName":"V-component_of_WINDS"},"data":[0,0,0,0,0,0,0,0,0,0,0,0,0,0,0,0,0,0,0,0,0,0,0,0,0,0,0,0,0,0,0,0,0,0,0,0,0,0,0,0,0,0,0,0,0,0,0,0,0,0,0,0,0,0,0,0,0,0,2.8414,2.8413,0,2.8372,2.8371,2.8371,2.8307,2.8306,2.8305,2.8304,2.8261,2.8261,2.8261,0,0,0,0,0,0,0,0,0,0,0,0,0,2.8439,2.8439,2.8414,2.8413,2.8413,2.8372,2.8371,2.8371,2.8307,2.8306,2.8305,2.8303,2.8261,2.8261,2.8261,0,0,0,0,0,0,0,0,0,0,0,0,0,2.8416,2.8439,2.8414,2.8376,2.8372,2.8372,2.8371,2.8371,2.8308,2.8306,2.8304,2.8303,2.8261,2.8261,2.8261,2.8295,0,0,2.8261,2.8261,0,0,0,0,0,0,0,0,2.8417,2.8415,2.8382,2.8379,2.8375,2.8343,2.8365,2.8345,2.8308,2.8332,2.8304,2.8302,2.829,2.8287,2.8283,2.8293,2.8291,2.8261,2.8261,2.8261,2.8261,0,0,0,0,0,0,0,2.8419,2.8416,2.8397,2.8382,2.8377,2.8361,2.8356,2.8361,2.8321,2.833,2.8325,2.8321,2.8287,2.8283,2.8282,2.829,2.8261,2.8261,2.8261,2.8261,2.8323,2.8324,0,0,0,0,0,0,2.8426,2.8418,2.8399,2.8396,2.8392,2.8362,2.8356,2.8355,2.8321,2.8314,2.8323,2.8318,2.8284,2.8282,2.828,2.8315,2.8261,2.8261,2.8261,2.8321,2.8323,2.8325,0,0,0,0,0,0,2.8427,2.8425,2.84,2.8406,2.8401,2.8364,2.8362,2.8355,2.8351,2.8315,2.8308,2.8326,2.8283,2.828,2.8291,2.8313,2.8261,2.826,2.8319,2.8322,2.8324,2.8387,0,0,0,0,0,0,2.8428,2.8425,2.8438,2.8406,2.8401,2.8412,2.8364,2.8355,2.8351,2.8345,2.8316,2.831,2.8281,2.8291,2.8291,2.8312,2.826,2.8317,2.832,2.8323,2.8383,2.8392,2.8399,0,0,0,0,0,2.8429,2.8458,2.8439,2.8437,2.8416,2.8414,2.8411,2.8377,2.8353,2.8365,2.8342,2.8311,2.8311,2.8293,2.8292,2.8313,2.8315,2.8319,2.8323,2.838,2.839,2.8399,0,0,0,0,0,0,2.8493,2.8453,2.8432,2.8451,2.8436,2.8403,2.8417,2.839,2.8381,2.8376,2.8335,2.8329,2.8345,2.833,2.8311,2.8343,2.8308,2.8312,2.8352,2.8361,2.8369,2.8372,2.826,0,0,0,0,0,2.851,2.8511,2.8476,2.8497,2.849,2.8455,2.8453,2.8428,2.8411,2.8405,2.8382,2.8367,2.8363,2.8362,2.8357,2.8381,2.8373,2.8395,2.8403,2.841,2.8413,2.8423,2.8432,2.8338,2.8338,2.8338,0,0,2.8544,2.8522,2.8526,2.8509,2.8495,2.8497,2.845,2.8455,2.8455,2.8405,2.8413,2.8397,2.8377,2.8394,2.8401,2.8383,2.8438,2.8415,2.842,2.842,2.8428,2.8437,2.8445,2.834,2.834,2.8339,0,0,2.8607,2.8591,2.8606,2.8592,2.857,2.8546,2.855,2.8521,2.8507,2.8515,2.8477,2.8478,2.8473,2.8459,2.8452,2.8509,2.848,2.8509,2.855,2.8561,2.8568,2.8574,2.8593,2.8601,2.8512,2.8513,2.8513,0,2.8652,2.8653,2.8617,2.8623,2.8616,2.8571,2.8585,2.8574,2.8552,2.8548,2.8528,2.852,2.8503,2.8516,2.853,2.8526,2.8528,2.8511,2.857,2.8576,2.8581,2.8599,2.8606,2.8516,2.8516,2.8515,2.8515,0,2.8709,2.871,2.8725,2.8704,2.8699,2.871,2.8675,2.8674,2.865,2.8628,2.8636,2.8615,2.8604,2.8605,2.8582,2.8614,2.8603,2.8578,2.8542,2.8594,2.861,2.8617,2.8521,2.852,2.8519,2.8518,0,0,2.881,2.8769,2.8775,2.8764,2.8737,2.8737,2.8745,2.8734,2.8734,2.872,2.8725,2.8722,2.8697,2.8689,2.8664,2.8673,2.8717,2.8645,2.8644,2.8658,2.875,2.8769,2.8777,2.8698,2.87,2.8701,2.8751,0,2.8867,2.8878,2.8845,2.8864,2.8864,2.8821,2.8828,2.8811,2.8791,2.8789,2.8766,2.8764,2.8732,2.8727,2.8734,2.8711,2.8735,2.8707,2.8702,2.8702,2.8707,2.8786,2.8806,2.8855,2.8757,2.8758,2.8759,0,2.8933,2.8922,2.8942,2.8912,2.8911,2.8918,2.8904,2.8902,2.8883,2.8867,2.8858,2.8828,2.8833,2.88,2.8806,2.8787,2.8783,2.8771,2.8772,2.877,2.8733,2.8784,2.887,2.8877,2.8769,2.8768,2.8767,0,2.9004,2.8994,2.9004,2.8996,2.8963,2.8968,2.8954,2.8933,2.8928,2.8916,2.8912,2.8902,2.8896,2.8888,2.8856,2.8835,2.8865,2.8829,2.8851,2.8852,2.8859,2.8859,2.8944,2.8859,2.8859,2.8859,2.8858,0,2.9069,2.9082,2.9035,2.9041,2.9054,2.9016,2.903,2.9012,2.8993,2.8994,2.8957,2.8958,2.8917,2.8914,2.8889,2.8897,2.8895,2.8882,2.8875,2.8884,2.8886,2.888,2.8876,2.886,2.886,2.886,2.8859,0,2.9149,2.9118,2.9126,2.9093,2.9085,2.9096,2.9068,2.9071,2.9049,2.9051,2.9049,2.9014,2.9008,2.8976,2.8963,2.8946,2.8962,2.8949,2.8969,2.8964,2.8987,2.8985,2.9071,2.908,2.8991,2.8992,2.8993,0,2.9192,2.9201,2.9169,2.9167,2.9155,2.9152,2.9147,2.911,2.9106,2.9084,2.909,2.9081,2.9072,2.9065,2.9038,2.9028,2.9013,2.9044,2.9012,2.902,2.9012,2.9011,2.9011,2.9051,2.9052,2.9053,2.9054,0,2.9271,2.9255,2.9249,2.9237,2.9231,2.922,2.9207,2.9207,2.9166,2.9163,2.9157,2.915,2.9137,2.9128,2.9113,2.9098,2.9069,2.9064,2.9069,2.9078,2.9088,2.9081,2.8986,2.9062,2.9062,2.9061,2.906,2.906,2.9333,2.9338,2.9317,2.931,2.9296,2.9284,2.9286,2.9263,2.9257,2.9243,2.9222,2.9218,2.9197,2.9174,2.9161,2.9158,2.9141,2.9148,2.9149,2.9151,2.9155,2.909,2.9155,2.9155,2.9154,2.9154,2.9154,0,2.9409,2.9393,2.9387,2.9369,2.9364,2.9337,2.9321,2.9318,2.9315,2.9298,2.929,2.9282,2.9274,2.9246,2.9234,2.9236,2.9222,2.9234,2.9233,2.923,2.9172,2.9168,2.9245,2.9245,2.9245,2.9245,2.9245,2.9245,2.9448,2.9455,2.9436,2.9436,2.9419,2.9415,2.9408,2.9396,2.9382,2.9375,2.9368,2.935,2.9328,2.9314,2.9305,2.9296,2.9293,2.9309,2.9297,2.9243,2.9234,2.9226,2.9222,2.9309,2.9309,2.9355,2.9355,2.9356]}]]